Time,TemperatureF,DewpointF,PressureIn,WindDirection,WindDirectionDegrees,WindSpeedMPH,WindSpeedGustMPH,Humidity,HourlyPrecipIn,Conditions,Clouds,dailyrainin,SoftwareType,DateUTC
2013-06-29 00:01:00,56.1,40.1,29.88,SSE,152,0.0,1.0,55,0.00,,,0.00,meteohub,2013-06-29 06:01:00,
2013-06-29 00:06:00,56.3,40.3,29.88,SE,145,1.0,2.0,55,0.00,,,0.00,meteohub,2013-06-29 06:06:00,
2013-06-29 00:12:00,56.7,40.3,29.88,SSE,158,1.0,2.0,54,0.00,,,0.00,meteohub,2013-06-29 06:12:00,
2013-06-29 00:17:00,56.8,40.5,29.88,SE,145,1.0,2.0,54,0.00,,,0.00,meteohub,2013-06-29 06:17:00,
2013-06-29 00:22:00,57.0,40.1,29.89,SE,136,1.0,2.0,53,0.00,,,0.00,meteohub,2013-06-29 06:22:00,
2013-06-29 00:27:00,57.4,39.9,29.89,SE,131,1.0,2.0,52,0.00,,,0.00,meteohub,2013-06-29 06:27:00,
2013-06-29 00:32:00,57.0,40.1,29.89,SE,137,1.0,2.0,53,0.00,,,0.00,meteohub,2013-06-29 06:32:00,
2013-06-29 00:37:00,56.7,40.3,29.89,SSE,149,1.0,2.0,54,0.00,,,0.00,meteohub,2013-06-29 06:37:00,
2013-06-29 00:42:00,56.1,39.7,29.90,SSE,166,1.0,3.0,54,0.00,,,0.00,meteohub,2013-06-29 06:42:00,
2013-06-29 00:47:00,56.3,39.9,29.89,SSW,206,1.0,3.0,54,0.00,,,0.00,meteohub,2013-06-29 06:47:00,
2013-06-29 00:52:00,56.5,39.6,29.89,South,186,2.0,3.0,53,0.00,,,0.00,meteohub,2013-06-29 06:52:00,
2013-06-29 00:57:00,56.7,39.7,29.88,South,184,0.0,3.0,53,0.00,,,0.00,meteohub,2013-06-29 06:57:00,
2013-06-29 01:02:00,56.5,39.6,29.88,South,186,0.0,3.0,53,0.00,,,0.00,meteohub,2013-06-29 07:02:00,
2013-06-29 01:07:00,56.5,39.6,29.89,South,186,0.0,2.0,53,0.00,,,0.00,meteohub,2013-06-29 07:07:00,
2013-06-29 01:12:00,55.9,39.9,29.89,South,186,0.0,1.0,55,0.00,,,0.00,meteohub,2013-06-29 07:12:00,
2013-06-29 01:17:00,55.2,39.7,29.89,South,184,0.0,1.0,56,0.00,,,0.00,meteohub,2013-06-29 07:17:00,
2013-06-29 01:22:00,54.5,40.1,29.89,SE,134,1.0,1.0,58,0.00,,,0.00,meteohub,2013-06-29 07:22:00,
2013-06-29 01:27:00,54.0,39.6,29.88,SSE,148,0.0,2.0,58,0.00,,,0.00,meteohub,2013-06-29 07:27:00,
2013-06-29 01:32:00,54.9,39.4,29.89,NNW,332,3.0,3.0,56,0.00,,,0.00,meteohub,2013-06-29 07:32:00,
2013-06-29 01:37:00,55.6,39.7,29.89,NNW,330,1.0,3.0,55,0.00,,,0.00,meteohub,2013-06-29 07:37:00,
2013-06-29 01:42:00,55.8,39.4,29.88,NW,326,0.0,3.0,54,0.00,,,0.00,meteohub,2013-06-29 07:42:00,
2013-06-29 01:47:00,55.8,39.9,29.88,NNW,328,1.0,3.0,55,0.00,,,0.00,meteohub,2013-06-29 07:47:00,
2013-06-29 01:52:00,56.1,39.7,29.89,NNW,339,1.0,2.0,54,0.00,,,0.00,meteohub,2013-06-29 07:52:00,
2013-06-29 01:57:00,56.1,40.1,29.89,NNW,330,1.0,3.0,55,0.00,,,0.00,meteohub,2013-06-29 07:57:00,
2013-06-29 02:02:00,55.6,40.1,29.89,NNW,330,1.0,3.0,56,0.00,,,0.00,meteohub,2013-06-29 08:02:00,
2013-06-29 02:07:00,55.0,40.1,29.90,NNW,330,0.0,3.0,57,0.00,,,0.00,meteohub,2013-06-29 08:07:00,
2013-06-29 02:12:00,54.7,40.3,29.90,NNW,330,0.0,2.0,58,0.00,,,0.00,meteohub,2013-06-29 08:12:00,
2013-06-29 02:17:00,54.3,39.9,29.89,NNW,330,0.0,2.0,58,0.00,,,0.00,meteohub,2013-06-29 08:17:00,
2013-06-29 02:22:00,54.0,39.9,29.89,NNW,330,0.0,2.0,59,0.00,,,0.00,meteohub,2013-06-29 08:22:00,
2013-06-29 02:27:00,53.6,40.1,29.90,NNW,340,2.0,3.0,60,0.00,,,0.00,meteohub,2013-06-29 08:27:00,
2013-06-29 02:32:00,52.9,40.3,29.90,NW,308,0.0,3.0,62,0.00,,,0.00,meteohub,2013-06-29 08:32:00,
2013-06-29 02:37:00,52.3,40.1,29.90,NW,307,0.0,3.0,63,0.00,,,0.00,meteohub,2013-06-29 08:37:00,
2013-06-29 02:42:00,52.0,40.1,29.90,NW,308,1.0,2.0,64,0.00,,,0.00,meteohub,2013-06-29 08:42:00,
2013-06-29 02:47:00,52.3,39.7,29.90,NW,311,0.0,3.0,62,0.00,,,0.00,meteohub,2013-06-29 08:47:00,
2013-06-29 02:52:00,53.4,39.4,29.90,NW,318,3.0,3.0,59,0.00,,,0.00,meteohub,2013-06-29 08:52:00,
2013-06-29 02:57:00,54.3,39.0,29.90,NNW,334,3.0,5.0,56,0.00,,,0.00,meteohub,2013-06-29 08:57:00,
2013-06-29 03:02:00,54.9,38.5,29.89,NNW,344,3.0,5.0,54,0.00,,,0.00,meteohub,2013-06-29 09:02:00,
2013-06-29 03:07:00,55.2,37.9,29.89,NW,322,2.0,5.0,52,0.00,,,0.00,meteohub,2013-06-29 09:07:00,
2013-06-29 03:12:00,55.6,37.8,29.89,NW,319,2.0,5.0,51,0.00,,,0.00,meteohub,2013-06-29 09:12:00,
2013-06-29 03:18:00,55.6,37.8,29.89,NNW,329,1.0,5.0,51,0.00,,,0.00,meteohub,2013-06-29 09:18:00,
2013-06-29 03:23:00,55.8,37.9,29.89,NNW,333,3.0,4.0,51,0.00,,,0.00,meteohub,2013-06-29 09:23:00,
2013-06-29 03:28:00,55.8,37.9,29.88,NNW,333,0.0,4.0,51,0.00,,,0.00,meteohub,2013-06-29 09:28:00,
2013-06-29 03:33:00,55.4,37.6,29.88,NNW,333,1.0,3.0,51,0.00,,,0.00,meteohub,2013-06-29 09:33:00,
2013-06-29 03:38:00,55.2,36.9,29.88,NNW,332,1.0,3.0,50,0.00,,,0.00,meteohub,2013-06-29 09:38:00,
2013-06-29 03:43:00,55.2,37.9,29.89,NNW,332,2.0,2.0,52,0.00,,,0.00,meteohub,2013-06-29 09:43:00,
2013-06-29 03:48:00,54.7,38.3,29.89,NW,325,2.0,2.0,54,0.00,,,0.00,meteohub,2013-06-29 09:48:00,
2013-06-29 03:53:00,54.3,37.9,29.89,NW,324,4.0,5.0,54,0.00,,,0.00,meteohub,2013-06-29 09:53:00,
2013-06-29 03:58:00,54.3,37.9,29.89,NW,325,2.0,5.0,54,0.00,,,0.00,meteohub,2013-06-29 09:58:00,
2013-06-29 04:03:00,54.3,37.9,29.89,NW,324,1.0,6.0,54,0.00,,,0.00,meteohub,2013-06-29 10:03:00,
2013-06-29 04:08:00,54.1,37.9,29.89,NW,324,1.0,6.0,54,0.00,,,0.00,meteohub,2013-06-29 10:08:00,
2013-06-29 04:13:00,54.3,37.6,29.89,NNW,329,2.0,6.0,53,0.00,,,0.00,meteohub,2013-06-29 10:13:00,
2013-06-29 04:18:00,54.5,37.8,29.89,NW,318,2.0,3.0,53,0.00,,,0.00,meteohub,2013-06-29 10:18:00,
2013-06-29 04:23:00,55.0,37.8,29.89,NNW,334,3.0,3.0,52,0.00,,,0.00,meteohub,2013-06-29 10:23:00,
2013-06-29 04:28:00,55.2,38.8,29.89,NNW,331,0.0,3.0,54,0.00,,,0.00,meteohub,2013-06-29 10:28:00,
2013-06-29 04:34:00,54.5,38.7,29.89,NNW,331,0.0,3.0,55,0.00,,,0.00,meteohub,2013-06-29 10:34:00,
2013-06-29 04:39:00,53.8,37.9,29.89,NNW,339,2.0,3.0,55,0.00,,,0.00,meteohub,2013-06-29 10:39:00,
2013-06-29 04:44:00,54.1,37.9,29.89,NNW,330,4.0,4.0,54,0.00,,,0.00,meteohub,2013-06-29 10:44:00,
2013-06-29 04:49:00,54.7,37.9,29.89,NW,323,4.0,6.0,53,0.00,,,0.00,meteohub,2013-06-29 10:49:00,
2013-06-29 04:54:00,54.5,38.1,29.89,NNW,340,4.0,6.0,54,0.00,,,0.00,meteohub,2013-06-29 10:54:00,
2013-06-29 04:59:00,54.1,38.3,29.89,NW,319,3.0,6.0,55,0.00,,,0.00,meteohub,2013-06-29 10:59:00,
2013-06-29 05:04:00,54.3,38.5,29.90,North,349,4.0,6.0,55,0.00,,,0.00,meteohub,2013-06-29 11:04:00,
2013-06-29 05:09:00,54.3,38.5,29.90,NW,316,4.0,7.0,55,0.00,,,0.00,meteohub,2013-06-29 11:09:00,
2013-06-29 05:14:00,54.3,38.5,29.90,NW,324,3.0,7.0,55,0.00,,,0.00,meteohub,2013-06-29 11:14:00,
2013-06-29 05:19:00,54.3,38.5,29.89,NNW,333,6.0,7.0,55,0.00,,,0.00,meteohub,2013-06-29 11:19:00,
2013-06-29 05:24:00,54.3,38.5,29.89,NNW,331,3.0,6.0,55,0.00,,,0.00,meteohub,2013-06-29 11:24:00,
2013-06-29 05:29:00,54.1,38.3,29.89,NW,326,4.0,6.0,55,0.00,,,0.00,meteohub,2013-06-29 11:29:00,
2013-06-29 05:34:00,54.1,38.8,29.89,NW,326,4.0,6.0,56,0.00,,,0.00,meteohub,2013-06-29 11:34:00,
2013-06-29 05:39:00,54.1,38.8,29.90,NNW,335,2.0,8.0,56,0.00,,,0.00,meteohub,2013-06-29 11:39:00,
2013-06-29 05:44:00,54.3,39.0,29.89,NNW,330,3.0,8.0,56,0.00,,,0.00,meteohub,2013-06-29 11:44:00,
2013-06-29 05:50:00,54.3,39.0,29.89,NW,326,1.0,8.0,56,0.00,,,0.00,meteohub,2013-06-29 11:50:00,
2013-06-29 05:55:00,54.3,39.0,29.89,NW,323,1.0,5.0,56,0.00,,,0.00,meteohub,2013-06-29 11:55:00,
2013-06-29 06:00:00,54.3,39.0,29.89,NW,324,1.0,4.0,56,0.00,,,0.00,meteohub,2013-06-29 12:00:00,
2013-06-29 06:05:00,54.1,38.8,29.89,NW,324,1.0,4.0,56,0.00,,,0.00,meteohub,2013-06-29 12:05:00,
2013-06-29 06:10:00,54.1,39.2,29.89,NNW,330,0.0,2.0,57,0.00,,,0.00,meteohub,2013-06-29 12:10:00,
2013-06-29 06:15:00,54.0,39.0,29.90,NNW,330,2.0,3.0,57,0.00,,,0.00,meteohub,2013-06-29 12:15:00,
2013-06-29 06:20:00,54.1,39.2,29.90,NNW,330,1.0,3.0,57,0.00,,,0.00,meteohub,2013-06-29 12:20:00,
2013-06-29 06:25:00,53.8,38.8,29.90,NW,321,2.0,3.0,57,0.00,,,0.00,meteohub,2013-06-29 12:25:00,
2013-06-29 06:30:00,54.0,39.6,29.90,NNW,328,1.0,3.0,58,0.00,,,0.00,meteohub,2013-06-29 12:30:00,
2013-06-29 06:35:00,54.1,39.7,29.90,NNW,327,0.0,3.0,58,0.00,,,0.00,meteohub,2013-06-29 12:35:00,
2013-06-29 06:40:00,54.9,39.9,29.90,NNW,327,1.0,3.0,57,0.00,,,0.00,meteohub,2013-06-29 12:40:00,
2013-06-29 06:45:00,55.0,40.1,29.90,NNW,327,0.0,2.0,57,0.00,,,0.00,meteohub,2013-06-29 12:45:00,
2013-06-29 06:51:00,55.0,39.6,29.90,NNW,328,0.0,2.0,56,0.00,,,0.00,meteohub,2013-06-29 12:51:00,
2013-06-29 06:56:00,55.2,40.3,29.90,NNW,327,0.0,1.0,57,0.00,,,0.00,meteohub,2013-06-29 12:56:00,
2013-06-29 07:01:00,55.2,40.3,29.90,NNW,327,0.0,1.0,57,0.00,,,0.00,meteohub,2013-06-29 13:01:00,
2013-06-29 07:06:00,55.2,41.5,29.90,NNW,329,2.0,2.0,60,0.00,,,0.00,meteohub,2013-06-29 13:06:00,
2013-06-29 07:11:00,55.2,41.5,29.90,NNW,330,0.0,3.0,60,0.00,,,0.00,meteohub,2013-06-29 13:11:00,
2013-06-29 07:16:00,55.0,41.0,29.90,NNW,330,1.0,3.0,59,0.00,,,0.00,meteohub,2013-06-29 13:16:00,
2013-06-29 07:21:00,54.9,40.8,29.90,NNW,330,0.0,3.0,59,0.00,,,0.00,meteohub,2013-06-29 13:21:00,
2013-06-29 07:26:00,55.0,41.0,29.89,NNW,336,3.0,3.0,59,0.00,,,0.00,meteohub,2013-06-29 13:26:00,
2013-06-29 07:31:00,55.2,42.1,29.89,NNW,327,2.0,3.0,61,0.00,,,0.00,meteohub,2013-06-29 13:31:00,
2013-06-29 07:36:00,55.2,42.1,29.90,NNW,330,0.0,3.0,61,0.00,,,0.00,meteohub,2013-06-29 13:36:00,
2013-06-29 07:41:00,55.6,43.2,29.90,NNW,330,0.0,3.0,63,0.00,,,0.00,meteohub,2013-06-29 13:41:00,
2013-06-29 07:46:00,55.9,41.9,29.90,NW,324,0.0,2.0,59,0.00,,,0.00,meteohub,2013-06-29 13:46:00,
2013-06-29 07:52:00,56.3,41.7,29.90,NW,325,1.0,3.0,58,0.00,,,0.00,meteohub,2013-06-29 13:52:00,
2013-06-29 07:57:00,57.0,42.4,29.90,NW,312,1.0,3.0,58,0.00,,,0.00,meteohub,2013-06-29 13:57:00,
2013-06-29 08:02:00,57.6,41.9,29.90,NNW,335,2.0,3.0,56,0.00,,,0.00,meteohub,2013-06-29 14:02:00,
2013-06-29 08:07:00,58.3,42.3,29.90,NNW,329,0.0,3.0,55,0.00,,,0.00,meteohub,2013-06-29 14:07:00,
2013-06-29 08:12:00,58.6,41.5,29.90,NNW,334,3.0,4.0,53,0.00,,,0.00,meteohub,2013-06-29 14:12:00,
2013-06-29 08:17:00,58.6,41.0,29.90,NW,320,0.0,4.0,52,0.00,,,0.00,meteohub,2013-06-29 14:17:00,
2013-06-29 08:22:00,59.2,42.6,29.90,NW,323,3.0,4.0,54,0.00,,,0.00,meteohub,2013-06-29 14:22:00,
2013-06-29 08:27:00,59.5,43.3,29.90,NW,312,1.0,5.0,55,0.00,,,0.00,meteohub,2013-06-29 14:27:00,
2013-06-29 08:32:00,60.1,42.4,29.90,NW,317,1.0,5.0,52,0.00,,,0.00,meteohub,2013-06-29 14:32:00,
2013-06-29 08:37:00,60.1,42.4,29.89,NW,318,1.0,5.0,52,0.00,,,0.00,meteohub,2013-06-29 14:37:00,
2013-06-29 08:42:00,61.0,43.7,29.89,NW,308,3.0,5.0,53,0.00,,,0.00,meteohub,2013-06-29 14:42:00,
2013-06-29 08:47:00,61.9,44.6,29.89,NW,322,2.0,4.0,53,0.00,,,0.00,meteohub,2013-06-29 14:47:00,
2013-06-29 08:52:00,62.1,43.2,29.89,NW,320,2.0,4.0,50,0.00,,,0.00,meteohub,2013-06-29 14:52:00,
2013-06-29 08:57:00,62.1,44.2,29.89,NW,320,2.0,4.0,52,0.00,,,0.00,meteohub,2013-06-29 14:57:00,
2013-06-29 09:02:00,62.6,44.2,29.89,NNW,333,1.0,4.0,51,0.00,,,0.00,meteohub,2013-06-29 15:02:00,
2013-06-29 09:07:00,63.0,43.0,29.89,NW,321,1.0,4.0,48,0.00,,,0.00,meteohub,2013-06-29 15:07:00,
2013-06-29 09:12:00,62.6,42.6,29.89,NW,315,0.0,4.0,48,0.00,,,0.00,meteohub,2013-06-29 15:12:00,
2013-06-29 09:17:00,63.0,43.5,29.88,WNW,297,0.0,3.0,49,0.00,,,0.00,meteohub,2013-06-29 15:17:00,
2013-06-29 09:22:00,63.1,43.2,29.88,WNW,297,0.0,3.0,48,0.00,,,0.00,meteohub,2013-06-29 15:22:00,
2013-06-29 09:27:00,63.7,42.4,29.88,WNW,296,0.0,2.0,46,0.00,,,0.00,meteohub,2013-06-29 15:27:00,
2013-06-29 09:33:00,64.0,41.2,29.88,West,267,0.0,3.0,43,0.00,,,0.00,meteohub,2013-06-29 15:33:00,
2013-06-29 09:38:00,64.2,42.4,29.88,South,173,0.0,3.0,45,0.00,,,0.00,meteohub,2013-06-29 15:38:00,
2013-06-29 09:43:00,64.9,42.4,29.88,SE,143,0.0,3.0,44,0.00,,,0.00,meteohub,2013-06-29 15:43:00,
2013-06-29 09:48:00,65.8,43.3,29.88,NW,315,3.0,3.0,44,0.00,,,0.00,meteohub,2013-06-29 15:48:00,
2013-06-29 09:53:00,67.3,44.1,29.87,NNW,333,1.0,4.0,43,0.00,,,0.00,meteohub,2013-06-29 15:53:00,
2013-06-29 09:58:00,68.5,43.3,29.87,NNW,330,2.0,4.0,40,0.00,,,0.00,meteohub,2013-06-29 15:58:00,
2013-06-29 10:03:00,68.4,41.0,29.86,NW,305,1.0,5.0,37,0.00,,,0.00,meteohub,2013-06-29 16:03:00,
2013-06-29 10:08:00,68.5,40.5,29.86,NW,316,4.0,7.0,36,0.00,,,0.00,meteohub,2013-06-29 16:08:00,
2013-06-29 10:13:00,69.4,41.4,29.86,NW,323,3.0,8.0,36,0.00,,,0.00,meteohub,2013-06-29 16:13:00,
2013-06-29 10:18:00,70.5,41.5,29.86,NNW,340,4.0,8.0,35,0.00,,,0.00,meteohub,2013-06-29 16:18:00,
2013-06-29 10:24:00,70.2,41.2,29.86,NNW,327,3.0,8.0,35,0.00,,,0.00,meteohub,2013-06-29 16:24:00,
2013-06-29 10:29:00,70.5,39.2,29.85,West,262,1.0,8.0,32,0.00,,,0.00,meteohub,2013-06-29 16:29:00,
2013-06-29 10:34:00,71.2,39.9,29.86,NW,309,2.0,8.0,32,0.00,,,0.00,meteohub,2013-06-29 16:34:00,
2013-06-29 10:39:00,71.8,39.6,29.85,WNW,297,2.0,7.0,31,0.00,,,0.00,meteohub,2013-06-29 16:39:00,
2013-06-29 10:44:00,72.5,41.0,29.86,NW,312,3.0,5.0,32,0.00,,,0.00,meteohub,2013-06-29 16:44:00,
2013-06-29 10:49:00,72.5,39.4,29.86,NW,322,3.0,6.0,30,0.00,,,0.00,meteohub,2013-06-29 16:49:00,
2013-06-29 10:54:00,73.0,41.4,29.86,WNW,302,4.0,9.0,32,0.00,,,0.00,meteohub,2013-06-29 16:54:00,
2013-06-29 10:59:00,72.7,39.4,29.86,NW,318,1.0,9.0,30,0.00,,,0.00,meteohub,2013-06-29 16:59:00,
2013-06-29 11:04:00,73.0,38.8,29.85,West,263,2.0,9.0,29,0.00,,,0.00,meteohub,2013-06-29 17:04:00,
2013-06-29 11:09:00,74.1,39.9,29.85,NW,325,4.0,8.0,29,0.00,,,0.00,meteohub,2013-06-29 17:09:00,
2013-06-29 11:15:00,73.9,41.4,29.85,West,276,2.0,8.0,31,0.00,,,0.00,meteohub,2013-06-29 17:15:00,
2013-06-29 11:20:00,74.7,40.3,29.85,NNW,340,3.0,7.0,29,0.00,,,0.00,meteohub,2013-06-29 17:20:00,
2013-06-29 11:25:00,75.6,41.9,29.84,West,276,1.0,6.0,30,0.00,,,0.00,meteohub,2013-06-29 17:25:00,
2013-06-29 11:30:00,76.6,41.2,29.84,NNW,342,3.0,5.0,28,0.00,,,0.00,meteohub,2013-06-29 17:30:00,
2013-06-29 11:35:00,76.5,39.0,29.84,NW,312,2.0,6.0,26,0.00,,,0.00,meteohub,2013-06-29 17:35:00,
2013-06-29 11:40:00,76.5,39.0,29.83,NW,321,2.0,8.0,26,0.00,,,0.00,meteohub,2013-06-29 17:40:00,
2013-06-29 11:45:00,76.8,39.4,29.83,SSE,165,3.0,8.0,26,0.00,,,0.00,meteohub,2013-06-29 17:45:00,
2013-06-29 11:50:00,75.6,38.3,29.83,SE,139,3.0,8.0,26,0.00,,,0.00,meteohub,2013-06-29 17:50:00,
2013-06-29 11:55:00,73.4,36.5,29.83,SE,145,3.0,8.0,26,0.00,,,0.00,meteohub,2013-06-29 17:55:00,
2013-06-29 12:00:00,71.8,36.9,29.83,SE,131,4.0,8.0,28,0.00,,,0.00,meteohub,2013-06-29 18:00:00,
2013-06-29 12:06:00,70.5,37.6,29.83,South,171,2.0,8.0,30,0.00,,,0.00,meteohub,2013-06-29 18:06:00,
2013-06-29 12:11:00,69.4,39.0,29.83,WSW,246,2.0,8.0,33,0.00,,,0.00,meteohub,2013-06-29 18:11:00,
2013-06-29 12:16:00,68.4,38.8,29.83,SW,217,2.0,7.0,34,0.00,,,0.00,meteohub,2013-06-29 18:16:00,
2013-06-29 12:21:00,67.6,38.3,29.83,NW,322,2.0,7.0,34,0.00,,,0.00,meteohub,2013-06-29 18:21:00,
2013-06-29 12:26:00,67.3,39.4,29.83,SSE,155,5.0,7.0,36,0.00,,,0.00,meteohub,2013-06-29 18:26:00,
2013-06-29 12:31:00,67.1,39.2,29.83,SW,224,2.0,7.0,36,0.00,,,0.00,meteohub,2013-06-29 18:31:00,
2013-06-29 12:36:00,66.9,38.3,29.83,West,260,3.0,7.0,35,0.00,,,0.00,meteohub,2013-06-29 18:36:00,
2013-06-29 12:41:00,66.4,37.9,29.83,NW,308,9.0,10.0,35,0.00,,,0.00,meteohub,2013-06-29 18:41:00,
2013-06-29 12:46:00,66.9,34.5,29.83,NNW,328,7.0,17.0,30,0.00,,,0.00,meteohub,2013-06-29 18:46:00,
2013-06-29 12:51:00,67.5,32.4,29.83,NNW,332,9.0,19.0,27,0.00,,,0.00,meteohub,2013-06-29 18:51:00,
2013-06-29 12:56:00,67.6,34.2,29.83,North,359,6.0,21.0,29,0.00,,,0.00,meteohub,2013-06-29 18:56:00,
2013-06-29 13:01:00,67.3,34.7,29.83,NW,316,4.0,21.0,30,0.00,,,0.00,meteohub,2013-06-29 19:01:00,
2013-06-29 13:07:00,67.3,35.6,29.84,NW,314,1.0,21.0,31,0.00,,,0.00,meteohub,2013-06-29 19:07:00,
2013-06-29 13:12:00,66.9,36.9,29.85,WSW,243,1.0,13.0,33,0.00,,,0.00,meteohub,2013-06-29 19:12:00,
2013-06-29 13:17:00,66.4,35.6,29.85,WSW,248,0.0,10.0,32,0.00,,,0.00,meteohub,2013-06-29 19:17:00,
2013-06-29 13:22:00,65.5,36.3,29.85,ESE,117,1.0,9.0,34,0.00,,,0.00,meteohub,2013-06-29 19:22:00,
2013-06-29 13:27:00,64.9,37.4,29.85,SW,225,1.0,9.0,36,0.00,,,0.00,meteohub,2013-06-29 19:27:00,
2013-06-29 13:32:00,64.6,37.0,29.84,ESE,118,1.0,3.0,36,0.00,,,0.00,meteohub,2013-06-29 19:32:00,
2013-06-29 13:37:00,64.6,37.0,29.84,WSW,256,0.0,3.0,36,0.00,,,0.00,meteohub,2013-06-29 19:37:00,
2013-06-29 13:42:00,64.8,38.5,29.83,SSW,210,0.0,3.0,38,0.00,,,0.00,meteohub,2013-06-29 19:42:00,
2013-06-29 13:47:00,64.8,39.2,29.83,NNW,336,2.0,2.0,39,0.00,,,0.00,meteohub,2013-06-29 19:47:00,
2013-06-29 13:52:00,65.5,37.0,29.83,NW,319,8.0,8.0,35,0.00,,,0.00,meteohub,2013-06-29 19:52:00,
2013-06-29 13:57:00,66.0,35.2,29.83,ESE,115,3.0,11.0,32,0.00,,,0.00,meteohub,2013-06-29 19:57:00,
2013-06-29 14:02:00,66.2,37.8,29.83,SE,131,2.0,11.0,35,0.00,,,0.00,meteohub,2013-06-29 20:02:00,
2013-06-29 14:07:00,66.0,36.1,29.84,SE,137,2.0,11.0,33,0.00,,,0.00,meteohub,2013-06-29 20:07:00,
2013-06-29 14:12:00,65.8,36.7,29.84,ESE,114,3.0,4.0,34,0.00,,,0.00,meteohub,2013-06-29 20:12:00,
2013-06-29 14:17:00,65.8,38.1,29.84,ESE,117,3.0,5.0,36,0.00,,,0.00,meteohub,2013-06-29 20:17:00,
2013-06-29 14:22:00,65.1,38.8,29.84,SE,134,3.0,5.0,38,0.00,,,0.00,meteohub,2013-06-29 20:22:00,
2013-06-29 14:27:00,64.6,37.8,29.83,ESE,110,6.0,6.0,37,0.00,,,0.00,meteohub,2013-06-29 20:27:00,
2013-06-29 14:32:00,63.1,39.0,29.83,SE,124,2.0,7.0,41,0.00,,,0.00,meteohub,2013-06-29 20:32:00,
2013-06-29 14:37:00,61.9,39.7,29.82,SE,139,2.0,8.0,44,0.00,,,0.00,meteohub,2013-06-29 20:37:00,
2013-06-29 14:42:00,61.5,42.6,29.83,ESE,120,1.0,8.0,50,0.01,,,0.01,meteohub,2013-06-29 20:42:00,
2013-06-29 14:48:00,62.1,38.7,29.83,NNW,332,1.0,7.0,42,0.01,,,0.01,meteohub,2013-06-29 20:48:00,
2013-06-29 14:53:00,62.1,41.0,29.83,NNW,342,2.0,7.0,46,0.01,,,0.01,meteohub,2013-06-29 20:53:00,
2013-06-29 14:56:00,62.1,41.5,29.83,NW,314,1.0,6.0,47,0.01,,,0.01,meteohub,2013-06-29 20:56:00,
2013-06-29 15:01:00,62.1,44.2,29.83,WNW,300,3.0,4.0,52,0.01,,,0.01,meteohub,2013-06-29 21:01:00,
2013-06-29 15:06:00,61.7,40.6,29.84,NW,308,1.0,13.0,46,0.01,,,0.01,meteohub,2013-06-29 21:06:00,
2013-06-29 15:11:00,62.1,41.5,29.84,NW,323,4.0,13.0,47,0.01,,,0.01,meteohub,2013-06-29 21:11:00,
2013-06-29 15:16:00,63.1,40.8,29.83,WSW,238,0.0,15.0,44,0.01,,,0.01,meteohub,2013-06-29 21:16:00,
2013-06-29 15:21:00,63.9,41.0,29.83,SSE,152,1.0,15.0,43,0.01,,,0.01,meteohub,2013-06-29 21:21:00,
2013-06-29 15:27:00,64.8,41.2,29.83,ESE,115,1.0,11.0,42,0.01,,,0.01,meteohub,2013-06-29 21:27:00,
2013-06-29 15:32:00,65.3,41.0,29.83,ESE,105,2.0,3.0,41,0.01,,,0.01,meteohub,2013-06-29 21:32:00,
2013-06-29 15:37:00,65.7,41.4,29.84,SSE,159,1.0,8.0,41,0.01,,,0.01,meteohub,2013-06-29 21:37:00,
2013-06-29 15:42:00,66.7,44.8,29.83,SSE,156,2.0,8.0,45,0.00,,,0.01,meteohub,2013-06-29 21:42:00,
2013-06-29 15:47:00,68.2,41.0,29.83,SE,141,2.0,8.0,37,0.00,,,0.01,meteohub,2013-06-29 21:47:00,
2013-06-29 15:52:00,67.5,42.3,29.83,ESE,110,2.0,6.0,40,0.00,,,0.01,meteohub,2013-06-29 21:52:00,
2013-06-29 15:57:00,66.6,41.5,29.83,ESE,111,6.0,6.0,40,0.00,,,0.01,meteohub,2013-06-29 21:57:00,
2013-06-29 16:02:00,65.7,42.6,29.84,ESE,123,3.0,6.0,43,0.00,,,0.01,meteohub,2013-06-29 22:02:00,
2013-06-29 16:07:00,65.3,41.5,29.84,SE,128,2.0,6.0,42,0.00,,,0.01,meteohub,2013-06-29 22:07:00,
2013-06-29 16:12:00,65.5,43.0,29.83,SE,126,1.0,6.0,44,0.00,,,0.01,meteohub,2013-06-29 22:12:00,
2013-06-29 16:17:00,65.8,42.8,29.83,SE,135,0.0,5.0,43,0.00,,,0.01,meteohub,2013-06-29 22:17:00,
2013-06-29 16:22:00,66.6,43.3,29.82,SW,224,2.0,4.0,43,0.00,,,0.01,meteohub,2013-06-29 22:22:00,
2013-06-29 16:27:00,66.4,41.9,29.82,WNW,297,4.0,4.0,41,0.00,,,0.01,meteohub,2013-06-29 22:27:00,
2013-06-29 16:32:00,65.8,42.1,29.81,NNW,338,5.0,12.0,42,0.00,,,0.01,meteohub,2013-06-29 22:32:00,
2013-06-29 16:37:00,65.7,42.6,29.81,NW,307,3.0,12.0,43,0.00,,,0.01,meteohub,2013-06-29 22:37:00,
2013-06-29 16:42:00,65.5,43.0,29.81,NW,326,8.0,12.0,44,0.00,,,0.01,meteohub,2013-06-29 22:42:00,
2013-06-29 16:47:00,65.5,43.5,29.81,NW,325,4.0,13.0,45,0.00,,,0.01,meteohub,2013-06-29 22:47:00,
2013-06-29 16:52:00,65.7,42.6,29.81,WNW,302,12.0,13.0,43,0.00,,,0.01,meteohub,2013-06-29 22:52:00,
2013-06-29 16:57:00,65.1,42.1,29.81,NNW,333,5.0,13.0,43,0.00,,,0.01,meteohub,2013-06-29 22:57:00,
2013-06-29 17:02:00,64.6,42.3,29.80,NNW,333,8.0,13.0,44,0.00,,,0.01,meteohub,2013-06-29 23:02:00,
2013-06-29 17:07:00,64.0,41.7,29.81,NW,304,5.0,13.0,44,0.00,,,0.01,meteohub,2013-06-29 23:07:00,
2013-06-29 17:12:00,63.9,42.1,29.81,NW,322,8.0,13.0,45,0.00,,,0.01,meteohub,2013-06-29 23:12:00,
2013-06-29 17:17:00,63.9,43.7,29.80,NW,316,8.0,14.0,48,0.00,,,0.01,meteohub,2013-06-29 23:17:00,
2013-06-29 17:22:00,63.5,44.1,29.80,NNW,328,8.0,14.0,49,0.00,,,0.01,meteohub,2013-06-29 23:22:00,
2013-06-29 17:27:00,63.3,45.0,29.80,NW,314,8.0,14.0,51,0.00,,,0.01,meteohub,2013-06-29 23:27:00,
2013-06-29 17:32:00,62.8,43.9,29.81,NW,314,5.0,13.0,50,0.00,,,0.01,meteohub,2013-06-29 23:32:00,
2013-06-29 17:37:00,62.2,43.9,29.81,WNW,303,6.0,13.0,51,0.00,,,0.01,meteohub,2013-06-29 23:37:00,
2013-06-29 17:42:00,61.7,43.3,29.81,NNW,327,5.0,16.0,51,0.00,,,0.01,meteohub,2013-06-29 23:42:00,
2013-06-29 17:47:00,61.3,43.5,29.82,NNW,342,10.0,16.0,52,0.00,,,0.01,meteohub,2013-06-29 23:47:00,
2013-06-29 17:52:00,61.0,42.8,29.82,NW,310,6.0,17.0,51,0.00,,,0.01,meteohub,2013-06-29 23:52:00,
2013-06-29 17:57:00,60.8,42.6,29.81,NW,324,6.0,17.0,51,0.00,,,0.01,meteohub,2013-06-29 23:57:00,
2013-06-29 18:02:00,60.8,42.6,29.81,NW,318,5.0,17.0,51,0.00,,,0.01,meteohub,2013-06-30 00:02:00,
2013-06-29 18:07:00,60.6,43.0,29.81,WNW,301,20.0,20.0,52,0.00,,,0.00,meteohub,2013-06-30 00:07:00,
2013-06-29 18:12:00,60.3,43.0,29.82,WNW,294,7.0,20.0,53,0.00,,,0.00,meteohub,2013-06-30 00:12:00,
2013-06-29 18:17:00,59.7,43.5,29.82,NNW,334,9.0,20.0,55,0.00,,,0.00,meteohub,2013-06-30 00:17:00,
2013-06-29 18:22:00,58.3,45.7,29.82,NW,314,19.0,20.0,63,0.00,,,0.00,meteohub,2013-06-30 00:22:00,
2013-06-29 18:27:00,57.0,45.0,29.81,West,280,6.0,23.0,64,0.00,,,0.00,meteohub,2013-06-30 00:27:00,
2013-06-29 18:32:00,56.5,45.7,29.82,NW,308,14.0,23.0,67,0.00,,,0.00,meteohub,2013-06-30 00:32:00,
2013-06-29 18:38:00,56.5,44.8,29.81,NNW,346,16.0,19.0,65,0.00,,,0.00,meteohub,2013-06-30 00:38:00,
2013-06-29 18:43:00,56.5,45.3,29.81,NW,310,9.0,22.0,66,0.00,,,0.00,meteohub,2013-06-30 00:43:00,
2013-06-29 18:48:00,56.3,45.5,29.82,NNW,337,7.0,22.0,67,0.00,,,0.00,meteohub,2013-06-30 00:48:00,
2013-06-29 18:53:00,56.1,45.3,29.82,NNW,327,4.0,22.0,67,0.00,,,0.00,meteohub,2013-06-30 00:53:00,
2013-06-29 18:58:00,55.9,45.1,29.82,NNW,333,6.0,20.0,67,0.00,,,0.00,meteohub,2013-06-30 00:58:00,
2013-06-29 19:03:00,55.9,45.5,29.83,NW,318,2.0,16.0,68,0.00,,,0.00,meteohub,2013-06-30 01:03:00,
2013-06-29 19:09:00,55.9,45.9,29.83,NW,322,2.0,13.0,69,0.00,,,0.00,meteohub,2013-06-30 01:09:00,
2013-06-29 19:14:00,55.9,45.5,29.83,North,359,2.0,13.0,68,0.00,,,0.00,meteohub,2013-06-30 01:14:00,
2013-06-29 19:19:00,56.1,46.4,29.83,NW,313,3.0,7.0,70,0.00,,,0.00,meteohub,2013-06-30 01:19:00,
2013-06-29 19:24:00,55.6,47.1,29.84,NNW,327,0.0,7.0,73,0.00,,,0.00,meteohub,2013-06-30 01:24:00,
2013-06-29 19:29:00,55.0,47.3,29.84,ESE,110,2.0,7.0,75,0.00,,,0.00,meteohub,2013-06-30 01:29:00,
2013-06-29 19:35:00,54.0,48.0,29.83,ESE,109,0.0,6.0,80,0.00,,,0.00,meteohub,2013-06-30 01:35:00,
2013-06-29 19:40:00,53.2,47.5,29.83,ESE,111,0.0,5.0,81,0.01,,,0.01,meteohub,2013-06-30 01:40:00,
2013-06-29 19:45:00,53.4,47.1,29.83,ESE,107,0.0,3.0,79,0.01,,,0.01,meteohub,2013-06-30 01:45:00,
2013-06-29 19:50:00,53.6,46.6,29.83,ESE,108,0.0,3.0,77,0.01,,,0.01,meteohub,2013-06-30 01:50:00,
2013-06-29 19:55:00,53.8,47.1,29.83,NNW,327,1.0,2.0,78,0.01,,,0.01,meteohub,2013-06-30 01:55:00,
2013-06-29 20:00:00,53.4,47.1,29.84,NNW,335,2.0,3.0,79,0.01,,,0.01,meteohub,2013-06-30 02:00:00,
2013-06-29 20:06:00,53.4,46.4,29.84,NNW,330,0.0,3.0,77,0.01,,,0.01,meteohub,2013-06-30 02:06:00,
2013-06-29 20:11:00,53.4,47.1,29.83,ESE,106,2.0,3.0,79,0.01,,,0.01,meteohub,2013-06-30 02:11:00,
2013-06-29 20:16:00,53.2,46.9,29.82,ESE,110,0.0,2.0,79,0.01,,,0.01,meteohub,2013-06-30 02:16:00,
2013-06-29 20:21:00,53.2,46.6,29.82,ESE,110,0.0,2.0,78,0.01,,,0.01,meteohub,2013-06-30 02:21:00,
2013-06-29 20:26:00,53.2,45.5,29.82,ESE,110,1.0,2.0,75,0.01,,,0.01,meteohub,2013-06-30 02:26:00,
2013-06-29 20:32:00,53.2,45.5,29.82,ESE,110,0.0,1.0,75,0.00,,,0.01,meteohub,2013-06-30 02:32:00,
2013-06-29 20:37:00,53.2,45.1,29.81,ESE,110,0.0,1.0,74,0.00,,,0.01,meteohub,2013-06-30 02:37:00,
2013-06-29 20:42:00,53.4,45.7,29.81,ESE,110,1.0,1.0,75,0.00,,,0.01,meteohub,2013-06-30 02:42:00,
2013-06-29 20:47:00,53.2,44.4,29.81,ESE,110,0.0,1.0,72,0.00,,,0.01,meteohub,2013-06-30 02:47:00,
2013-06-29 20:52:00,53.4,44.6,29.82,ESE,110,0.0,1.0,72,0.00,,,0.01,meteohub,2013-06-30 02:52:00,
2013-06-29 20:57:00,53.4,44.2,29.82,ESE,110,0.0,1.0,71,0.00,,,0.01,meteohub,2013-06-30 02:57:00,
2013-06-29 21:02:00,53.4,44.2,29.83,ESE,110,0.0,0.0,71,0.00,,,0.01,meteohub,2013-06-30 03:02:00,
2013-06-29 21:07:00,53.4,44.6,29.83,SE,134,0.0,1.0,72,0.00,,,0.01,meteohub,2013-06-30 03:07:00,
2013-06-29 21:12:00,53.2,44.1,29.83,SE,134,0.0,1.0,71,0.00,,,0.01,meteohub,2013-06-30 03:12:00,
2013-06-29 21:17:00,53.1,44.2,29.82,SE,134,0.0,1.0,72,0.00,,,0.01,meteohub,2013-06-30 03:17:00,
2013-06-29 21:22:00,53.2,44.1,29.82,SE,134,0.0,0.0,71,0.00,,,0.01,meteohub,2013-06-30 03:22:00,
2013-06-29 21:27:00,53.2,44.1,29.82,SE,134,0.0,0.0,71,0.00,,,0.01,meteohub,2013-06-30 03:27:00,
2013-06-29 21:32:00,53.1,43.9,29.81,SE,134,0.0,0.0,71,0.00,,,0.01,meteohub,2013-06-30 03:32:00,
2013-06-29 21:37:00,53.4,44.2,29.81,SE,134,0.0,0.0,71,0.00,,,0.01,meteohub,2013-06-30 03:37:00,
2013-06-29 21:42:00,53.2,43.7,29.81,SE,134,0.0,1.0,70,0.00,,,0.01,meteohub,2013-06-30 03:42:00,
2013-06-29 21:47:00,53.2,43.7,29.82,SE,134,0.0,1.0,70,0.00,,,0.01,meteohub,2013-06-30 03:47:00,
2013-06-29 21:52:00,53.6,44.1,29.81,NW,325,0.0,1.0,70,0.00,,,0.01,meteohub,2013-06-30 03:52:00,
2013-06-29 21:57:00,53.4,43.9,29.81,NW,324,1.0,2.0,70,0.00,,,0.01,meteohub,2013-06-30 03:57:00,
2013-06-29 22:01:00,53.4,44.2,29.81,NW,325,0.0,2.0,71,0.00,,,0.01,meteohub,2013-06-30 04:01:00,
2013-06-29 22:02:00,53.4,44.2,29.81,NW,325,0.0,2.0,71,0.00,,,0.01,meteohub,2013-06-30 04:02:00,
2013-06-29 22:03:00,53.4,43.9,29.81,NW,325,0.0,2.0,70,0.00,,,0.01,meteohub,2013-06-30 04:03:00,
2013-06-29 22:04:00,53.4,43.9,29.81,NW,325,2.0,2.0,70,0.00,,,0.01,meteohub,2013-06-30 04:04:00,
2013-06-29 22:09:00,53.2,44.1,29.82,NNW,335,2.0,2.0,71,0.00,,,0.01,meteohub,2013-06-30 04:09:00,
2013-06-29 22:15:00,52.9,44.1,29.83,NNW,334,2.0,3.0,72,0.00,,,0.01,meteohub,2013-06-30 04:15:00,
2013-06-29 22:20:00,52.9,44.4,29.83,NW,326,2.0,3.0,73,0.00,,,0.01,meteohub,2013-06-30 04:20:00,
2013-06-29 22:25:00,52.9,44.8,29.83,NW,326,0.0,3.0,74,0.00,,,0.01,meteohub,2013-06-30 04:25:00,
2013-06-29 22:30:00,52.9,44.1,29.83,NW,326,1.0,3.0,72,0.00,,,0.01,meteohub,2013-06-30 04:30:00,
2013-06-29 22:35:00,53.4,43.9,29.83,NW,323,1.0,2.0,70,0.00,,,0.01,meteohub,2013-06-30 04:35:00,
2013-06-29 22:40:00,53.2,44.4,29.83,NW,324,1.0,2.0,72,0.00,,,0.01,meteohub,2013-06-30 04:40:00,
2013-06-29 22:45:00,52.7,44.6,29.84,NNW,338,1.0,2.0,74,0.00,,,0.01,meteohub,2013-06-30 04:45:00,
2013-06-29 22:50:00,52.2,44.4,29.84,NW,321,0.0,2.0,75,0.00,,,0.01,meteohub,2013-06-30 04:50:00,
2013-06-29 22:56:00,51.6,44.6,29.83,NW,320,0.0,2.0,77,0.00,,,0.01,meteohub,2013-06-30 04:56:00,
2013-06-29 23:01:00,51.3,44.2,29.83,NW,321,0.0,2.0,77,0.00,,,0.01,meteohub,2013-06-30 05:01:00,
2013-06-29 23:06:00,50.7,44.4,29.84,NW,320,0.0,1.0,79,0.00,,,0.01,meteohub,2013-06-30 05:06:00,
2013-06-29 23:11:00,50.4,45.1,29.84,NW,321,0.0,1.0,82,0.00,,,0.01,meteohub,2013-06-30 05:11:00,
2013-06-29 23:16:00,50.4,45.3,29.84,ESE,105,0.0,0.0,83,0.00,,,0.01,meteohub,2013-06-30 05:16:00,
2013-06-29 23:21:00,50.4,45.7,29.85,ESE,104,1.0,2.0,84,0.00,,,0.01,meteohub,2013-06-30 05:21:00,
2013-06-29 23:26:00,50.5,45.5,29.84,ESE,105,0.0,2.0,83,0.00,,,0.01,meteohub,2013-06-30 05:26:00,
2013-06-29 23:32:00,50.5,45.3,29.84,ESE,105,0.0,1.0,82,0.00,,,0.01,meteohub,2013-06-30 05:32:00,
2013-06-29 23:37:00,50.5,44.2,29.84,East,91,1.0,1.0,79,0.00,,,0.01,meteohub,2013-06-30 05:37:00,
2013-06-29 23:42:00,51.1,44.4,29.85,NE,54,1.0,2.0,78,0.00,,,0.01,meteohub,2013-06-30 05:42:00,
2013-06-29 23:47:00,51.3,45.0,29.84,NE,54,0.0,2.0,79,0.00,,,0.01,meteohub,2013-06-30 05:47:00,
2013-06-29 23:52:00,51.1,45.5,29.84,ESE,110,0.0,2.0,81,0.00,,,0.01,meteohub,2013-06-30 05:52:00,
2013-06-29 23:57:00,50.7,45.1,29.85,ESE,110,0.0,2.0,81,0.00,,,0.01,meteohub,2013-06-30 05:57:00,